Weather observations for the past three days for
Modesto City-County Airport - Harry Sham Field
Imperial (Metric)
Date Time (pdt) Wind (mph) Vis. (mi.) Weather Sky Cond. Temperature (ºF) Relative Humidity Wind Chill (°F) Heat Index (°F) Pressure Precipitation (in)
Air Dwpt 6 hour altimeter (in) sea level (mb) 1 hr 3 hr 6 hr
Max. Min.
23 12:53 N 7 10.00 Fair CLR 102.9 54 20% 101 29.83 1010.0
23 11:53 NW 5 10.00 Fair CLR 99 53.1 21% 97 29.84 1010.3
23 10:53 NW 6 10.00 Fair CLR 97 52 97 75.9 22% 94 29.84 1010.4
23 09:53 N 7 10.00 Fair CLR 93 53.1 26% 91 29.85 1010.6
23 08:53 N 6 10.00 Fair CLR 89.1 52 28% 87 29.85 1010.6
23 07:53 NW 5 10.00 Fair CLR 84.9 52 32% 83 29.83 1010.1
23 06:53 Calm 10.00 Fair CLR 79 55.9 45% 80 29.82 1009.6
23 05:53 Calm 10.00 Fair CLR 75.9 59 56% 78 29.81 1009.1
23 04:53 Calm 10.00 Fair CLR 78.1 57.9 87.1 77 50% 79 29.79 1008.5
23 03:53 NW 3 10.00 Fair CLR 79 57 47% 80 29.78 1008.2
23 02:53 Calm 10.00 Fair CLR 80.1 57.9 47% 81 29.77 1008.1
23 01:53 N 3 10.00 Fair CLR 82.9 55.9 40% 82 29.77 1008.0
23 00:53 N 3 10.00 Fair CLR 84.9 57 39% 84 29.76 1007.6
22 23:53 N 6 10.00 Fair CLR 86 57 37% 85 29.76 1007.5
22 22:53 N 3 10.00 Fair CLR 87.1 59 105.1 87.1 39% 86 29.75 1007.4
22 21:53 NW 6 10.00 Fair CLR 90 60.1 37% 90 29.74 1007.0
22 20:53 NW 8 10.00 Fair CLR 93.9 55.9 28% 92 29.73 1006.6
22 19:53 NW 6 10.00 Fair CLR 99 54 22% 97 29.72 1006.1
22 18:53 NW 5 10.00 Fair CLR 102 57 23% 101 29.71 1005.9
22 17:53 NW 8 10.00 Fair CLR 102.9 57.9 23% 103 29.71 1005.8
22 16:53 N 9 10.00 Fair CLR 104 54 105.1 87.1 19% 102 29.72 1006.2
22 15:53 NW 8 10.00 Fair CLR 102 60.1 25% 103 29.74 1006.9
22 14:53 NW 6 10.00 Fair CLR 100.9 59 25% 101 29.76 1007.6
22 13:53 Calm 10.00 Fair CLR 98.1 59 27% 98 29.78 1008.2
22 12:53 SW 8 10.00 Fair CLR 93 61 34% 93 29.79 1008.7
22 11:53 W 5 10.00 Fair CLR 91 59 34% 90 29.81 1009.2
22 10:53 N 5 10.00 Fair CLR 87.1 59 87.1 71.1 39% 86 29.82 1009.5
22 09:53 NW 7 10.00 Fair CLR 84 57 40% 83 29.82 1009.7
22 08:53 N 6 10.00 Fair CLR 79 57 47% 80 29.83 1009.9
22 07:53 Vrbl 3 10.00 Fair CLR 75.9 55.9 50% 78 29.82 1009.6
22 06:53 N 7 10.00 Fair CLR 73 55 53% 29.8 1008.9
22 05:53 N 6 10.00 Fair CLR 71.1 55.9 59% 29.79 1008.7
22 04:53 NW 5 10.00 Fair CLR 73 55.9 82 73 55% 29.78 1008.4
22 03:53 NW 5 10.00 Fair CLR 73.9 55.9 54% 29.78 1008.2
22 02:53 N 7 10.00 Fair CLR 75.9 55.9 50% 78 29.78 1008.2
22 01:53 NW 6 10.00 Fair CLR 75.9 57 52% 78 29.78 1008.1
22 00:53 N 6 10.00 Fair CLR 77 57.9 52% 79 29.78 1008.4
21 23:53 N 8 10.00 Fair CLR 79 57.9 49% 80 29.78 1008.4
21 22:53 NW 7 10.00 Fair CLR 82 57.9 96.1 82 44% 82 29.79 1008.5
21 21:53 NW 8 10.00 Fair CLR 84 57.9 41% 83 29.78 1008.4
21 20:53 NW 7 10.00 Fair CLR 86 57 37% 85 29.78 1008.3
21 19:53 NW 9 10.00 Fair CLR 91 60.1 35% 91 29.78 1008.2
21 18:53 NW 10 10.00 Fair CLR 93.9 57 29% 93 29.78 1008.2
21 17:53 NW 10 10.00 Fair CLR 96.1 59 29% 96 29.78 1008.3
21 16:53 NW 8 10.00 Fair CLR 95 57 96.1 82.9 28% 94 29.79 1008.7
21 15:53 NW 8 10.00 Fair CLR 95 57 28% 94 29.81 1009.4
21 14:53 Vrbl 5 10.00 Fair CLR 91.9 55.9 30% 90 29.83 1010.1
21 13:53 Vrbl 6 G 17 10.00 Fair CLR 90 55 31% 88 29.85 1010.7
21 12:53 Vrbl 7 G 17 10.00 Fair CLR 88 55 33% 86 29.87 1011.2
21 11:53 N 10 10.00 Fair CLR 86 54 33% 84 29.88 1011.6
21 10:53 NW 9 10.00 Fair CLR 82.9 54 82.9 70 37% 82 29.88 1011.8
21 09:53 NW 9 10.00 Fair CLR 79 53.1 41% 79 29.89 1011.9
21 08:53 NW 10 10.00 Fair CLR 75.9 52 43% 78 29.89 1011.9
21 07:53 NW 8 10.00 Fair CLR 73 51.1 46% 29.88 1011.6
21 06:53 NW 9 10.00 Fair CLR 70 51.1 51% 29.86 1011.1
21 05:53 NW 9 10.00 Fair CLR 71.1 50 47% 29.85 1010.7
21 04:53 N 10 10.00 Fair CLR 72 50 82 72 46% 29.84 1010.3
21 03:53 N 9 10.00 Fair CLR 75 48 39% 77 29.83 1010.0
21 02:53 NW 9 10.00 Fair CLR 75 48.9 40% 77 29.83 1010.1
21 01:53 NW 10 10.00 Fair CLR 78.1 48 35% 78 29.84 1010.2
21 00:53 NW 13 10.00 Fair CLR 80.1 50 35% 80 29.84 1010.2
20 23:53 N 10 10.00 Fair CLR 81 53.1 38% 80 29.84 1010.4
20 22:53 N 10 10.00 Fair CLR 82 53.1 102.9 82 37% 81 29.84 1010.3
20 21:53 N 9 10.00 Fair CLR 86 50 29% 84 29.83 1010.0
20 20:53 NW 9 10.00 Fair CLR 91 46.9 22% 88 29.81 1009.4
20 19:53 NW 12 10.00 Fair CLR 93.9 46.9 20% 90 29.8 1009.1
20 18:53 NW 15 10.00 Fair CLR 98.1 53.1 22% 96 29.8 1009.0
20 17:53 NW 13 10.00 Fair CLR 100.9 59 25% 101 29.79 1008.7
20 16:53 W 14 10.00 Fair CLR 102.9 59 104 91 24% 103 29.79 1008.6
20 15:53 NW 9 10.00 Fair CLR 102.9 59 24% 103 29.8 1009.1
20 14:53 N 10 10.00 Fair CLR 100.9 57.9 24% 101 29.83 1009.8
20 13:53 NW 8 10.00 Fair CLR 98.1 55 24% 96 29.84 1010.4
Date Time (pdt) Wind (mph) Vis. (mi.) Weather Sky Cond. Air Dwpt Max. Min. Relative Humidity Wind Chill (°F) Heat Index (°F) altimeter (in) sea level (mb) 1 hr 3 hr 6 hr
6 hour
Temperature (ºF) Pressure Precipitation (in)